Fort Atkinson, Wisconsin, United States (53538)
Lat: 42.93N, Lon: 88.84W
Wx Zone: WIZ064
Local Info
Past Weather Observations for Today

NOTE: This archive is for the closest National Weather Service station to Fort Atkinson. Information may differ from the station used for current weather conditions.

Click here for Long-term Archive

Time Weather Temperature Dewpoint Humidity Pressure Winds Precip Visibility
20:35
Clear
43°F / 6°C 43°F / 6°C 100% 30.15 in
(1021 mb)
Calm - 7SM
20:15
Clear
43°F / 6°C 43°F / 6°C 100% 30.15 in
(1021 mb)
Calm - 10SM
19:55
Obscured
Fog And Mist
43°F / 6°C 43°F / 6°C 100% 30.15 in
(1021 mb)
Calm - 3/4SM
19:35
Clear
Fog And Mist
45°F / 7°C 45°F / 7°C 100% 30.15 in
(1021 mb)
Calm - 2 1/2SM
19:15
Clear
Fog And Mist
45°F / 7°C 45°F / 7°C 100% 30.15 in
(1021 mb)
Calm - 4SM
18:55
Clear
48°F / 9°C 48°F / 9°C 100% 30.15 in
(1021 mb)
Calm - 10SM
18:35
Clear
48°F / 9°C 48°F / 9°C 100% 30.15 in
(1021 mb)
Calm - 10SM
18:15
Clear
52°F / 11°C 50°F / 10°C 94% 30.15 in
(1021 mb)
Calm - 10SM
17:55
Clear
54°F / 12°C 50°F / 10°C 88% 30.15 in
(1021 mb)
Calm - 10SM
17:35
Partly Cloudy
54°F / 12°C 48°F / 9°C 82% 30.15 in
(1021 mb)
NW 3.5 mph
(NW 6 kph)
- 10SM
17:15
Mostly Cloudy
55°F / 13°C 48°F / 9°C 77% 30.15 in
(1021 mb)
NW 4.6 mph
(NW 7 kph)
- 10SM
16:55
Mostly Cloudy
55°F / 13°C 48°F / 9°C 77% 30.15 in
(1021 mb)
NNW 5.8 mph
(NNW 9 kph)
- 10SM
16:35
Mostly Cloudy
54°F / 12°C 48°F / 9°C 82% 30.12 in
(1020 mb)
NNW 5.8 mph
(NNW 9 kph)
- 10SM
16:15
Overcast
55°F / 13°C 50°F / 10°C 82% 30.12 in
(1020 mb)
N 5.8 mph
(N 9 kph)
- 10SM
15:55
Mostly Cloudy
54°F / 12°C 50°F / 10°C 88% 30.12 in
(1020 mb)
N 6.9 mph
(N 11 kph)
- 10SM
15:35
Mostly Cloudy
54°F / 12°C 50°F / 10°C 88% 30.12 in
(1020 mb)
N 3.5 mph
(N 6 kph)
- 10SM
15:15
Mostly Cloudy
55°F / 13°C 50°F / 10°C 82% 30.12 in
(1020 mb)
N 5.8 mph
(N 9 kph)
- 10SM
14:55
Overcast
54°F / 12°C 52°F / 11°C 94% 30.12 in
(1020 mb)
N 5.8 mph
(N 9 kph)
0.01 in
(0.25 mm)
10SM
14:35
Overcast
Light Rain
52°F / 11°C 52°F / 11°C 100% 30.12 in
(1020 mb)
NNW 5.8 mph
(NNW 9 kph)
0.01 in
(0.25 mm)
10SM
14:15
Overcast
Light Rain
52°F / 11°C 52°F / 11°C 100% 30.12 in
(1020 mb)
N 5.8 mph
(N 9 kph)
0.01 in
(0.25 mm)
10SM
13:55
Overcast
Light Rain
52°F / 11°C 52°F / 11°C 100% 30.12 in
(1020 mb)
NNW 3.5 mph
(NNW 6 kph)
0.02 in
(0.51 mm)
10SM
13:35
Overcast
Drizzle
52°F / 11°C 52°F / 11°C 100% 30.12 in
(1020 mb)
NW 3.5 mph
(NW 6 kph)
0.01 in
(0.25 mm)
10SM
13:15
Overcast
Drizzle
52°F / 11°C 50°F / 10°C 94% 30.12 in
(1020 mb)
N 4.6 mph
(N 7 kph)
- 7SM
12:55
Overcast
Light Rain
52°F / 11°C 52°F / 11°C 100% 30.12 in
(1020 mb)
N 6.9 mph
(N 11 kph)
0.09 in
(2.29 mm)
5SM
12:35
Overcast
Rain
52°F / 11°C 52°F / 11°C 100% 30.12 in
(1020 mb)
Calm 0.05 in
(1.27 mm)
2SM
12:15
Overcast
Drizzle
52°F / 11°C 52°F / 11°C 100% 30.15 in
(1021 mb)
Calm 0.02 in
(0.51 mm)
2 1/2SM
11:55
Overcast
Drizzle
52°F / 11°C 52°F / 11°C 100% 30.12 in
(1020 mb)
NW 3.5 mph
(NW 6 kph)
0.04 in
(1.02 mm)
4SM
11:35
Overcast
Drizzle
52°F / 11°C 52°F / 11°C 100% 30.12 in
(1020 mb)
Calm 0.03 in
(0.76 mm)
3SM
11:15
Overcast
Light Rain
54°F / 12°C 52°F / 11°C 94% 30.12 in
(1020 mb)
Calm 0.01 in
(0.25 mm)
5SM
10:55
Overcast
Drizzle
54°F / 12°C 52°F / 11°C 94% 30.12 in
(1020 mb)
ENE 3.5 mph
(ENE 6 kph)
0.04 in
(1.02 mm)
3SM
10:35
Overcast
Drizzle
54°F / 12°C 52°F / 11°C 94% 30.12 in
(1020 mb)
Calm 0.01 in
(0.25 mm)
5SM
10:15
Overcast
Light Rain
54°F / 12°C 52°F / 11°C 94% 30.12 in
(1020 mb)
Calm - 10SM
09:55
Overcast
54°F / 12°C 52°F / 11°C 94% 30.12 in
(1020 mb)
ENE 4.6 mph
(ENE 7 kph)
0.01 in
(0.25 mm)
10SM
09:35
Overcast
54°F / 12°C 52°F / 11°C 94% 30.12 in
(1020 mb)
NE 4.6 mph
(NE 7 kph)
0.01 in
(0.25 mm)
10SM
09:15
Overcast
Light Rain
54°F / 12°C 52°F / 11°C 94% 30.12 in
(1020 mb)
NE 3.5 mph
(NE 6 kph)
- 10SM
08:55
Overcast
Drizzle
54°F / 12°C 52°F / 11°C 94% 30.12 in
(1020 mb)
N 3.5 mph
(N 6 kph)
- 10SM
08:35
Overcast
Drizzle
54°F / 12°C 54°F / 12°C 100% 30.12 in
(1020 mb)
Calm - 10SM
08:15
Overcast
Drizzle
52°F / 11°C 52°F / 11°C 100% 30.12 in
(1020 mb)
Calm - 7SM
07:55
Overcast
Light Rain
52°F / 11°C 52°F / 11°C 100% 30.12 in
(1020 mb)
Calm 0.03 in
(0.76 mm)
7SM
07:35
Overcast
Light Rain
52°F / 11°C 52°F / 11°C 100% 30.15 in
(1021 mb)
Calm 0.02 in
(0.51 mm)
7SM
07:15
Overcast
Drizzle
52°F / 11°C 52°F / 11°C 100% 30.12 in
(1020 mb)
Calm 0.01 in
(0.25 mm)
7SM
06:55
Overcast
Drizzle
52°F / 11°C 52°F / 11°C 100% 30.15 in
(1021 mb)
Calm 0.01 in
(0.25 mm)
10SM
06:35
Overcast
Light Rain
50°F / 10°C 50°F / 10°C 100% 30.15 in
(1021 mb)
Calm - 7SM
06:15
Overcast
50°F / 10°C 50°F / 10°C 100% 30.12 in
(1020 mb)
SSE 3.5 mph
(SSE 6 kph)
- 10SM
05:55
Overcast
50°F / 10°C 50°F / 10°C 100% 30.12 in
(1020 mb)
S 3.5 mph
(S 6 kph)
- 10SM
05:35
Overcast
50°F / 10°C 50°F / 10°C 100% 30.15 in
(1021 mb)
SSE 3.5 mph
(SSE 6 kph)
- 10SM
05:15
Overcast
50°F / 10°C 50°F / 10°C 100% 30.15 in
(1021 mb)
Calm - 10SM
04:55
Overcast
50°F / 10°C 50°F / 10°C 100% 30.15 in
(1021 mb)
Calm - 10SM
04:35
Overcast
50°F / 10°C 48°F / 9°C 94% 30.12 in
(1020 mb)
Calm - 10SM
04:15
Overcast
50°F / 10°C 50°F / 10°C 100% 30.12 in
(1020 mb)
Calm - 10SM
03:55
Mostly Cloudy
50°F / 10°C 48°F / 9°C 94% 30.12 in
(1020 mb)
Calm - 10SM
03:35
Mostly Cloudy
50°F / 10°C 50°F / 10°C 100% 30.12 in
(1020 mb)
Calm - 10SM
03:15
Overcast
50°F / 10°C 50°F / 10°C 100% 30.12 in
(1020 mb)
Calm - 10SM
02:55
Overcast
52°F / 11°C 48°F / 9°C 88% 30.12 in
(1020 mb)
Calm - 10SM
02:35
Overcast
52°F / 11°C 48°F / 9°C 88% 30.12 in
(1020 mb)
Calm - 10SM
02:15
Overcast
50°F / 10°C 48°F / 9°C 94% 30.15 in
(1021 mb)
Calm - 10SM
01:55
Overcast
50°F / 10°C 48°F / 9°C 94% 30.15 in
(1021 mb)
Calm - 10SM
01:35
Mostly Cloudy
48°F / 9°C 48°F / 9°C 100% 30.12 in
(1020 mb)
Calm - 10SM
01:15
Clear
48°F / 9°C 46°F / 8°C 94% 30.15 in
(1021 mb)
Calm - 10SM
00:55
Clear
50°F / 10°C 46°F / 8°C 88% 30.15 in
(1021 mb)
Calm - 10SM
00:35
Clear
50°F / 10°C 46°F / 8°C 88% 30.15 in
(1021 mb)
Calm - 10SM
00:15
Clear
48°F / 9°C 46°F / 8°C 94% 30.15 in
(1021 mb)
SW 3.5 mph
(SW 6 kph)
- 10SM
Time Weather Temperature Dewpoint Humidity Pressure Winds Precip Visibility


Weather for websites

WeatherForYou.com, LLC is not responsible for any damages or problems caused by this service. Current weather conditions are obtained from the closest station including government and personal stations which may have varying degrees of accuracy. Weather forecasts are derived from the NOAA NDFD. Like all things, this site belongs to Jesus Christ... He just trusts me to maintain it. If you have any questions or comments email webmaster@weatherforyou.com

Copyright © 2014, WeatherForYou.com LLC. All rights reserved.